This is the latest recevied weather packets stored in our database for station/object K7SFN. If no packets are shown the sender has not sent any weather packets the latest 10 day(s).
| Time | Temp. | Humidity | Pressure | Rain* | Wind** | Luminosity | Snow |
|---|---|---|---|---|---|---|---|
| 1777644905 | 6.67° C | 61% | 1020.4 hPa | 0 mm | - | - | - |
| 1777644605 | 6.11° C | 60% | 1020.4 hPa | 0 mm | - | - | - |
| 1777641305 | 2.78° C | 66% | 1019.7 hPa | 0 mm | - | - | - |
| 1777640405 | 2.78° C | 68% | 1019.6 hPa | 0 mm | - | - | - |
| 1777638304 | 3.33° C | 64% | 1019.2 hPa | 0 mm | - | - | - |
| 1777637705 | 3.33° C | 65% | 1019.2 hPa | 0 mm | - | - | - |
| 1777634404 | 3.89° C | 61% | 1019.1 hPa | 0 mm | - | - | - |
| 1777634105 | 4.44° C | 59% | 1019 hPa | 0 mm | - | - | - |
| 1777632604 | 4.44° C | 58% | 1019 hPa | 0 mm | - | - | - |
| 1777632004 | 5° C | 57% | 1018.8 hPa | 0 mm | - | - | - |
| 1777628104 | 5° C | 58% | 1018.6 hPa | 0 mm | - | - | - |
| 1777627204 | 5.56° C | 56% | 1018.6 hPa | 0 mm | - | - | - |
| 1777624204 | 6.67° C | 50% | 1018.7 hPa | 0 mm | - | - | - |
| 1777623304 | 6.67° C | 50% | 1018.8 hPa | 0 mm | - | - | - |
| 1777616704 | 10° C | 44% | 1018.3 hPa | 0 mm | - | - | - |
| 1777611904 | 12.22° C | 36% | 1017.8 hPa | 0 mm | - | - | - |
| 1777610405 | 15° C | 30% | 1017.6 hPa | 0 mm | - | - | - |
| 1777608904 | 15.56° C | 29% | 1017.4 hPa | 0 mm | - | - | - |
| 1777607104 | 15° C | 30% | 1016.9 hPa | 0 mm | - | - | - |
| 1777606505 | 15.56° C | 30% | 1016.8 hPa | 0 mm | - | - | - |
| 1777605904 | 16.11° C | 30% | 1016.7 hPa | 0 mm | - | - | - |
| 1777602005 | 18.33° C | 23% | 1015.7 hPa | 0 mm | - | - | - |
| 1777600205 | 18.89° C | 22% | 1015.7 hPa | 0 mm | - | - | - |
| 1777599905 | 18.89° C | 22% | 1015.6 hPa | 0 mm | - | - | - |
| 1777599004 | 19.44° C | 21% | 1015.6 hPa | 0 mm | - | - | - |
* Rain latest hour (hover to see other rain measurements)
** Current wind speed in m/s (hover to see current wind gust speed)